SCP
0 0 0 0 0 0 0 0 0 0 0 0 0 0 0 0 0 0 0 0 0 0 0 0 0 0 0 0 0 0 0 0 0 0 0 0 1 1
0 0 0 0 0 0 0 0 0 0 0 0 0 0 0 0 0 0 0 0 0 0 0 0 0 0 0 0 0 0 0 0 0 0 0 0 1 1
0 0 0 0 0 0 0 0 0 0 0 0 0 0 0 0 0 0 0 0 0 0 0 0 0 0 0 0 0 0 0 0 0 0 0 0 1 1
0 0 0 0 0 0 0 0 0 0 0 0 0 0 0 0 0 0 0 0 0 0 0 0 0 0 0 0 0 0 0 0 0 0 0 0 0 1
0 0 0 0 0 0 0 0 0 0 0 0 0 0 0 0 0 0 0 0 0 0 0 0 0 0 0 0 0 0 0 0 0 0 0 0 0 0
0 0 0 0 0 0 0 0 0 0 0 0 0 0 0 0 0 0 0 0 0 0 0 0 0 0 0 0 0 0 0 0 0 0 0 0 0 0
0 0 0 0 0 0 0 0 0 0 0 0 0 0 0 0 0 0 0 0 0 0 0 0 0 0 0 0 0 0 0 0 0 0 0 0 0 0
0 0 0 0 0 0 0 0 0 0 0 0 0 0 0 0 0 0 0 0 0 0 0 0 0 0 0 0 0 0 0 0 0 0 0 0 0 0
0 0 0 0 0 0 0 0 0 0 0 0 0 0 0 0 0 0 0 0 0 0 0 0 0 0 0 0 0 0 0 0 0 0 0 0 0 0
0 0 0 0 0 0 0 0 0 0 0 0 0 0 0 0 0 0 0 0 0 0 0 0 0 0 0 0 0 0 0 0 0 0 0 0 0 0
0 0 0 0 0 0 0 0 0 0 0 0 0 0 0 0 0 0 0 0 0 0 0 0 0 0 0 0 0 0 0 0 0 0 0 0 0 0
0 0 0 0 0 0 0 0 0 0 0 0 0 0 0 0 0 0 0 0 0 0 0 0 0 0 0 0 0 0 0 0 0 0 0 0 0 0
0 0 0 0 0 0 0 0 0 0 0 0 0 0 0 0 0 0 0 0 0 0 0 0 0 0 0 0 0 0 0 0 0 0 0 0 0 0
0 0 0 0 0 0 0 0 0 0 0 0 0 0 0 0 0 0 0 0 0 0 0 0 0 0 0 0 0 0 0 0 0 0 0 0 0 0
0 0 0 0 0 0 0 0 0 0 0 0 0 0 0 0 0 0 0 0 0 0 0 0 0 0 0 0 0 0 0 0 0 0 0 0 0 0
0 0 0 0 0 0 0 0 0 0 0 0 0 0 0 0 0 0 0 0 0 0 0 0 0 0 0 0 0 0 0 0 0 0 0 0 0 0
0 0 0 0 0 0 0 0 0 0 0 0 0 0 0 0 0 0 0 0 0 0 0 0 0 0 0 0 0 0 0 0 0 0 0 0 0 0
0 0 0 0 0 0 0 0 0 0 0 0 0 0 0 0 0 0 0 0 0 0 0 0 0 0 0 0 0 0 0 0 0 0 0 0 0 0
0 0 0 0 0 0 0 0 0 0 0 0 0 0 0 0 0 0 0 0 0 0 0 0 0 0 0 0 0 0 0 0 0 0 0 0 0 0
0 0 0 0 0 0 0 0 0 0 0 0 0 0 0 0 0 0 0 0 0 0 0 0 0 0 0 0 0 0 0 0 0 0 0 0 0 0
0 0 0 0 0 0 0 0 0 0 0 0 0 0 0 0 0 0 0 0 0 0 0 0 0 0 0 0 0 0 0 0 0 0 0 0 0 0
0 0 0 0 0 0 0 0 0 0 0 0 0 0 0 0 0 0 0 0 0 0 0 0 0 0 0 0 0 0 0 0 0 0 0 0 0 0
0 0 0 0 0 0 0 0 0 0 0 0 0 0 0 0 0 0 0 0 0 0 0 0 0 0 0 0 0 0 0 0 0 0 0 0 0 0
Wind_Speed
1 1 1 1 1 1 1 1 2 5 7 4 4 4 5 5 10 7 8 15 18 18 18 18 18 18 17 17 18 18 19 19 19 19 20 20 20 20
1 1 1 1 1 1 1 2 2 3 6 5 5 6 7 7 12 8 8 17 17 17 18 18 17 17 17 17 17 17 18 18 19 19 20 20 20 19
1 1 2 1 1 2 2 2 2 3 6 7 5 6 7 8 9 7 7 7 8 16 18 17 17 17 16 16 16 17 17 17 18 19 19 19 19 19
2 1 2 1 2 2 2 3 3 4 5 8 7 6 7 7 8 8 8 7 7 14 17 17 17 16 16 16 16 16 16 17 18 18 19 19 19 19
2 2 3 2 3 3 3 3 3 4 4 5 7 6 6 6 7 8 8 6 7 10 14 15 16 16 16 16 16 16 16 16 17 18 18 18 19 19
2 2 3 3 4 4 3 4 4 4 4 5 6 6 6 6 5 7 8 7 7 7 9 11 14 15 16 16 16 16 16 16 17 17 17 17 17 18
2 3 3 4 5 4 4 4 4 3 4 5 5 6 6 6 6 6 8 9 7 5 6 7 7 6 8 11 13 15 15 15 16 17 17 17 17 17
2 3 3 3 5 7 8 7 6 4 5 4 5 6 7 7 6 6 7 8 7 4 6 8 5 6 6 5 12 15 15 16 17 17 16 17 16 16
2 2 3 4 5 4 6 7 6 8 7 4 5 6 7 7 7 7 7 7 8 7 7 7 5 6 6 8 14 14 14 15 16 16 16 16 15 15
2 3 3 3 4 5 4 4 4 5 6 4 4 6 6 6 5 6 7 8 7 5 3 5 5 6 7 6 12 14 15 15 16 16 16 16 15 15
2 2 3 3 7 7 4 4 5 5 6 8 8 8 10 10 7 4 5 6 7 5 2 3 5 7 6 4 7 14 15 16 17 17 16 16 16 14
2 2 4 6 7 6 3 3 5 5 5 6 6 7 6 6 8 4 4 5 5 5 3 4 4 5 6 4 4 6 8 13 16 16 16 17 16 9
2 2 3 7 7 7 5 3 6 6 4 4 4 5 4 4 4 4 3 3 4 5 4 4 4 4 4 6 5 5 5 6 7 9 12 16 16 11
2 2 3 6 7 7 5 7 8 6 3 3 4 4 5 5 5 5 5 5 5 6 6 5 4 5 5 6 6 6 5 6 5 6 6 11 12 13
2 4 6 6 5 4 6 8 6 3 3 3 4 4 4 5 5 5 5 5 5 5 4 4 4 5 4 5 6 6 6 6 5 6 6 6 6 6
2 4 5 5 4 5 5 4 3 3 3 3 4 4 4 4 4 4 5 5 5 5 4 4 4 4 4 5 5 6 5 5 6 7 6 6 5 5
3 2 2 3 3 3 3 3 3 4 4 4 4 4 4 5 5 4 4 4 4 5 6 5 4 4 4 4 4 5 5 5 5 6 6 6 5 5
3 2 2 2 3 4 4 4 4 4 4 4 4 4 4 5 5 5 4 4 5 5 5 5 6 5 4 3 2 4 5 5 5 6 5 5 6 5
2 1 2 2 3 3 3 4 4 4 4 4 4 4 4 4 4 5 5 5 5 5 5 4 5 5 6 7 5 4 5 6 6 5 4 4 5 6
2 1 2 2 2 3 3 4 4 4 4 4 4 4 4 4 4 5 5 5 5 5 5 4 4 4 4 5 5 6 7 5 4 5 5 4 4 6
2 2 2 2 2 3 3 3 4 4 4 4 4 5 4 4 4 4 5 7 6 5 5 5 5 7 4 3 4 4 5 7 6 4 5 4 5 5
2 2 2 3 3 3 3 3 4 4 4 4 4 4 4 4 4 5 5 5 4 4 5 5 5 4 3 3 4 5 6 6 7 8 7 5 3 4
2 2 3 3 3 3 3 4 5 4 4 4 4 4 4 4 4 4 4 4 4 5 5 5 5 4 3 3 4 4 6 7 5 6 6 9 8 6
Wind_Direction
191 199 228 256 264 266 259 256 281 307 307 298 303 305 312 311 316 316 313 318 324 326 325 324 323 323 323 323 322 322 322 322 321 320 320 320 319 319
196 193 241 264 279 274 265 269 256 266 287 293 294 303 309 314 317 317 311 322 322 324 325 323 323 323 323 323 323 322 322 322 322 322 321 320 320 320
217 214 251 259 267 276 273 271 265 262 280 295 294 301 304 310 316 313 312 311 313 322 325 325 325 323 323 323 323 323 323 323 323 322 322 322 322 323
233 234 258 274 273 276 269 269 269 266 275 295 303 308 307 311 312 315 318 318 312 319 326 326 327 327 326 325 326 325 325 325 324 324 325 324 323 323
229 240 254 255 270 274 274 274 278 285 281 289 301 306 306 314 319 317 314 312 316 319 324 326 328 328 327 327 327 327 327 326 325 326 326 324 323 322
237 247 257 250 259 268 274 275 286 292 295 298 303 309 309 316 322 325 325 325 320 319 321 323 324 326 327 327 327 327 327 327 327 327 326 325 324 322
261 260 268 287 290 287 289 286 287 291 303 305 308 314 316 326 328 324 320 319 314 310 319 317 316 313 317 319 323 325 328 329 328 327 326 326 324 324
267 282 286 283 297 304 303 300 298 300 300 298 303 309 308 313 315 318 320 326 321 324 324 312 314 311 312 310 321 327 328 329 330 328 327 326 326 327
258 278 297 300 308 290 298 307 305 307 302 297 295 298 303 308 314 315 315 312 302 307 314 304 311 306 309 318 328 332 332 332 333 333 332 332 332 332
255 257 273 288 293 303 303 310 305 299 298 296 283 290 296 300 297 298 300 302 296 295 300 297 310 309 312 311 328 338 339 337 338 336 336 337 337 336
268 271 288 286 298 321 320 311 313 311 317 317 314 313 316 319 322 322 324 322 316 312 307 301 307 312 307 303 321 336 340 342 342 341 341 344 343 339
302 298 304 310 315 328 320 307 309 312 322 326 323 321 316 315 325 322 310 313 313 310 320 320 312 325 317 306 318 326 331 336 339 340 343 345 346 346
308 311 306 320 326 329 328 304 307 321 321 318 316 318 322 321 316 312 299 291 296 291 305 316 310 314 300 305 312 320 328 329 332 334 342 346 347 348
306 306 311 327 335 334 332 330 338 340 327 323 324 325 326 323 317 313 305 296 281 281 292 298 294 305 307 307 309 320 326 325 330 335 339 342 345 346
320 327 332 338 345 341 341 347 351 343 331 329 323 318 315 311 312 314 315 311 305 296 295 294 291 297 298 301 307 316 320 323 334 339 340 340 338 341
346 342 346 350 352 348 349 349 344 336 335 321 317 315 316 317 318 321 322 328 326 322 314 305 298 303 306 300 303 312 320 319 328 333 333 334 338 345
355 1 355 347 350 348 345 345 343 341 340 332 325 323 323 322 323 327 324 327 328 326 329 330 320 304 292 302 310 317 323 323 325 332 335 340 341 344
19 2 347 345 346 343 341 340 339 338 335 330 324 323 323 323 325 328 329 329 328 327 328 329 333 335 334 328 299 310 325 324 327 333 335 339 342 346
26 355 340 337 335 333 332 330 329 326 325 324 325 326 328 326 327 329 331 330 329 329 330 333 338 344 348 345 332 338 330 328 332 337 341 335 333 337
357 339 333 328 325 325 326 327 326 327 329 327 326 326 328 328 330 330 329 329 328 329 332 338 342 341 334 321 316 323 334 331 335 341 339 330 326 328
339 335 328 319 317 318 320 322 320 319 322 322 322 324 325 327 328 328 326 329 331 331 336 337 327 324 310 312 324 335 340 351 357 345 334 335 338 351
331 327 320 314 313 314 318 322 320 318 321 320 320 322 324 324 325 326 327 330 332 331 330 327 329 338 348 349 340 335 339 345 354 1 6 11 357 357
322 316 312 311 312 315 318 320 317 313 316 316 318 321 322 323 322 321 323 328 333 337 339 338 341 346 343 338 338 339 347 351 355 5 8 9 17 15